Vorticity
5 5 4 4 4 4 4 4 4 4 5 5 6 6 7 8 9 9 10 10 11 11 11 12 13 13 13 13 13 12 12 11 11 10 10 9 9 9 8 8 7 7 7 7 6 6 6 6 6 6 7 7 7 7 7 7 7 7 7 7 8 7 7 7 7 8 8 8 8
5 5 4 4 4 3 3 4 4 4 5 6 7 8 9 9 10 10 10 11 11 12 12 13 13 12 12 11 11 10 9 9 8 8 7 7 7 6 6 6 6 5 5 5 5 6 6 6 6 7 7 7 7 7 7 7 7 7 7 7 7 7 7 7 8 8 8 8 7
5 4 4 3 3 3 3 3 4 4 5 7 8 9 9 10 10 10 11 11 12 12 12 12 11 10 9 9 8 7 6 6 6 6 5 5 5 5 4 4 4 4 5 5 5 6 6 7 7 7 7 7 8 7 7 7 7 7 7 7 7 7 7 7 8 8 7 7 7
3 3 3 3 3 3 3 4 5 6 7 8 8 8 9 9 10 10 11 11 11 11 10 9 8 7 6 6 5 5 4 4 4 4 4 4 4 3 3 3 3 4 5 5 5 6 6 7 7 7 8 8 8 8 7 7 8 8 8 7 7 7 7 7 7 7 7 7 7
3 4 4 4 4 4 5 6 7 7 8 7 8 9 10 11 11 11 10 10 9 8 7 5 5 4 4 4 4 3 3 3 3 3 3 3 3 3 3 3 3 4 4 5 5 6 6 7 7 8 8 8 8 8 8 7 8 8 8 8 8 7 7 7 7 7 7 6 6
5 5 6 6 7 7 8 9 9 9 9 9 10 11 12 12 11 10 9 8 7 5 4 3 3 3 3 3 3 3 3 3 3 3 3 3 3 3 3 3 4 4 5 5 5 6 6 7 7 8 8 8 8 8 8 8 8 8 8 8 8 8 7 7 7 7 7 6 6
9 9 10 10 11 11 11 12 11 11 12 12 12 12 11 10 9 8 6 5 5 3 3 2 2 2 2 2 3 3 3 3 3 3 3 3 3 3 3 4 4 5 5 5 5 6 6 7 7 7 7 8 8 8 8 9 9 8 8 8 8 8 8 7 7 7 7 7 7
13 13 13 13 13 13 13 13 12 12 12 11 10 9 8 7 5 4 4 3 3 3 3 3 3 3 3 3 3 3 3 3 4 4 3 3 3 4 4 5 5 5 5 5 6 6 6 7 7 7 7 7 7 8 8 8 9 9 9 8 8 8 8 8 8 8 8 7 7
14 14 14 14 13 13 12 12 11 10 9 7 6 5 4 4 3 3 3 3 3 3 4 4 4 3 3 3 3 3 3 4 4 4 4 4 4 4 5 5 5 6 6 6 6 6 6 6 6 6 6 7 7 7 8 8 8 8 8 8 8 8 8 8 8 8 8 8 7
11 10 10 10 9 9 8 7 6 6 5 5 4 4 4 3 3 3 3 4 4 4 4 4 4 4 4 4 4 4 4 4 4 5 5 5 5 5 5 5 6 6 6 6 6 6 6 6 6 6 7 7 7 7 7 8 8 8 8 8 8 8 8 8 8 8 8 8 7
5 5 5 5 5 5 5 5 5 4 4 5 5 5 4 4 4 4 4 4 5 5 5 5 5 5 5 5 5 5 5 5 5 5 5 6 6 6 6 7 7 7 7 7 7 7 7 7 7 7 8 8 8 8 8 8 9 9 8 8 8 8 8 8 8 8 8 8 8
3 3 3 4 4 4 5 5 5 5 5 5 5 5 5 5 5 5 5 5 5 5 5 5 5 5 5 5 5 5 6 6 6 7 7 7 8 8 8 9 9 9 8 8 9 9 9 9 9 9 9 9 10 9 9 9 9 9 9 9 9 9 9 9 9 9 8 8 8
4 5 5 5 6 6 6 6 5 5 5 5 5 5 5 5 5 5 5 6 6 5 5 6 6 6 6 6 7 7 7 8 8 8 9 10 10 10 11 11 10 10 10 10 10 11 11 11 11 11 11 10 10 10 10 10 10 10 9 9 9 9 9 9 9 9 8 8 8
8 8 8 8 7 7 6 6 6 6 6 6 6 6 6 6 6 7 7 7 7 7 7 7 8 8 8 8 9 9 9 10 10 11 11 12 12 12 12 12 12 12 12 12 12 12 12 12 12 12 11 11 11 11 11 10 10 10 9 9 9 9 9 9 9 9 8 8 8
11 10 10 9 9 8 7 7 7 7 8 8 8 7 7 7 8 8 9 9 9 9 9 10 10 10 11 11 11 11 12 12 12 13 13 14 14 14 13 13 13 13 13 13 13 14 13 13 13 12 12 12 11 11 11 10 10 10 9 9 9 9 9 9 9 9 9 9 8
12 11 11 10 10 10 9 10 10 10 10 10 9 9 9 9 9 10 10 11 10 11 11 11 11 11 12 12 13 13 13 14 14 14 15 15 15 14 14 14 14 15 15 14 14 14 14 13 13 12 12 12 11 11 10 10 9 9 9 8 8 8 8 8 8 9 9 8 8
12 11 11 10 10 10 11 11 11 11 11 11 11 11 11 11 11 11 11 11 11 11 12 12 12 12 12 13 14 15 15 15 15 15 15 15 15 15 15 15 15 15 15 14 14 13 13 12 12 12 11 11 10 10 10 9 9 8 8 8 7 7 7 7 7 7 7 7 7
12 12 11 11 11 11 11 11 11 11 11 11 11 11 11 11 11 11 12 12 12 12 12 12 13 13 14 14 15 15 16 15 16 16 16 16 16 16 16 15 15 15 14 14 13 13 12 12 11 11 11 11 10 10 10 9 9 8 8 8 7 7 7 7 7 7 6 6 7
14 13 13 13 13 13 12 12 12 11 11 11 11 10 11 11 11 11 11 11 12 12 12 12 13 14 14 14 15 15 15 15 15 16 16 16 16 15 15 15 14 14 13 13 12 12 12 11 11 11 11 11 11 11 10 10 10 10 10 9 9 9 9 9 9 9 9 9 9
14 14 14 14 14 14 13 13 13 12 12 11 11 11 10 10 10 11 11 11 11 11 11 11 12 12 13 13 13 13 14 14 15 15 15 15 14 14 13 13 12 12 12 11 11 11 11 11 11 11 11 11 11 11 12 12 12 12 12 12 12 12 12 12 12 13 13 13 13
12 12 13 13 13 13 13 12 12 12 12 12 11 11 11 11 11 11 11 11 10 11 11 11 11 11 12 12 12 12 13 13 14 14 14 13 12 12 11 11 11 11 11 11 11 11 11 11 11 11 11 11 12 12 12 12 13 13 13 14 14 14 15 15 16 16 16 16 16
10 10 10 10 10 10 10 10 10 11 11 11 11 11 11 11 11 11 11 11 11 11 11 11 11 11 11 11 11 11 12 12 12 12 11 11 10 10 10 10 10 10 10 11 11 11 11 11 11 11 11 11 11 12 12 12 13 14 14 15 15 16 16 17 17 17 17 17 17
8 8 8 8 8 8 8 8 8 9 9 9 10 10 10 11 11 11 11 11 11 11 11 11 11 11 11 11 11 11 11 10 10 10 9 9 8 8 8 9 10 10 11 11 11 11 10 10 10 10 10 11 11 11 12 12 13 14 14 15 16 16 17 17 18 18 18 18 18
7 7 7 7 7 7 8 8 8 8 9 9 9 9 10 10 10 10 10 10 10 10 10 10 10 10 10 10 10 10 10 10 10 9 8 8 8 8 8 9 10 10 11 11 11 10 10 10 10 10 10 10 11 11 12 12 13 14 14 15 15 16 17 17 18 18 18 17 16
9 8 8 8 8 9 9 9 9 9 9 9 9 9 10 10 10 10 10 10 10 10 10 10 10 10 10 10 10 11 11 10 10 9 8 7 7 7 8 9 10 11 11 11 10 10 10 10 10 10 10 10 11 11 12 13 13 14 14 15 15 16 17 18 18 18 17 15 14
10 10 10 10 10 10 10 10 10 10 10 10 10 10 10 10 10 11 11 11 11 11 11 11 11 11 11 11 11 11 11 11 10 9 8 7 7 7 8 9 10 11 11 11 10 10 10 10 10 10 10 10 11 11 12 13 13 14 14 15 15 16 16 17 17 17 16 15 16
11 11 11 11 11 11 11 11 11 11 11 11 11 11 11 11 11 11 11 11 11 11 11 11 12 12 12 12 12 11 11 11 10 9 8 7 7 8 8 10 10 11 11 10 10 10 9 9 9 10 10 11 11 12 12 13 14 14 14 14 15 16 16 17 16 16 15 15 17
11 11 11 11 11 11 11 11 11 11 11 11 11 11 11 11 11 11 12 12 12 12 12 12 13 12 12 12 12 12 12 11 10 9 8 8 8 8 9 9 10 10 10 10 10 9 9 9 9 9 10 11 11 12 13 14 14 14 14 14 15 16 17 17 16 15 15 15 16
13 13 12 12 12 11 11 11 10 10 10 10 11 11 11 11 11 11 12 12 12 12 13 13 13 13 13 13 13 12 11 10 10 9 8 8 8 8 8 9 10 10 10 9 9 8 8 8 9 9 10 11 12 13 14 14 14 14 14 15 16 16 15 14 13 12 12 11 11
16 16 15 15 14 14 13 12 12 11 11 10 10 11 11 11 11 11 12 12 12 12 13 13 13 13 14 13 12 11 10 10 9 9 8 8 8 8 8 9 9 9 9 9 8 8 7 8 8 9 11 12 14 16 16 16 15 15 15 15 16 16 14 13 11 9 7 7 7
15 15 15 16 16 16 16 15 14 14 13 12 12 11 11 11 11 11 11 12 12 12 12 13 13 13 13 12 12 11 10 10 9 8 8 8 8 8 8 8 9 9 9 9 8 7 7 7 8 10 11 14 16 18 18 17 16 15 16 17 19 20 21 20 18 16 15 14 14
10 10 11 12 13 14 14 15 16 15 15 14 13 12 12 11 11 11 11 11 11 12 12 13 13 13 12 12 11 10 10 10 9 8 8 8 8 8 8 9 9 10 10 9 8 8 8 8 9 10 12 15 18 19 19 18 16 16 17 19 21 23 25 26 26 25 24 22 22
6 7 8 8 9 10 11 12 14 14 15 15 15 14 13 12 11 11 11 11 12 12 12 12 12 12 12 12 11 11 10 9 9 9 9 8 8 8 9 9 10 11 11 10 9 9 9 9 10 12 14 17 20 21 21 19 17 17 17 18 19 20 22 23 23 23 23 22 21
6 6 7 8 8 8 9 10 11 12 14 15 15 15 14 13 12 12 12 12 11 11 12 12 12 12 12 11 11 11 11 10 10 9 9 9 9 9 10 10 11 12 12 12 11 10 10 10 12 13 16 19 21 22 21 19 18 16 16 16 16 16 17 17 18 17 17 16 16
6 7 8 9 9 9 9 9 10 10 12 13 14 14 14 14 13 12 11 11 11 11 12 12 12 12 12 12 12 12 12 11 11 11 10 10 10 10 10 11 12 12 13 12 12 11 11 12 13 15 17 20 21 21 20 17 16 15 14 13 13 13 13 13 13 13 12 12 11
7 8 10 11 11 11 11 10 10 10 11 12 13 13 14 14 14 13 12 11 11 11 11 11 12 12 12 13 13 13 13 13 13 12 12 11 11 11 11 12 12 13 13 13 13 12 12 13 14 16 18 20 21 20 18 15 13 12 11 11 11 11 11 11 10 10 9 9 8
8 10 11 12 12 12 12 12 11 11 11 11 12 13 14 14 14 14 13 13 12 12 11 11 11 11 12 13 14 14 14 14 14 13 13 12 12 12 12 12 13 14 14 14 13 13 13 13 14 16 18 20 20 20 18 15 13 11 10 10 10 10 9 9 8 8 8 8 8
11 12 13 14 14 14 13 13 12 12 11 11 12 13 14 14 15 15 15 15 14 12 11 10 10 10 11 13 14 15 15 15 15 14 13 12 12 12 12 13 14 15 16 16 14 14 13 13 14 16 17 19 20 20 19 17 15 14 13 12 12 11 10 9 9 9 9 9 9
13 15 15 15 15 15 14 14 13 12 12 12 12 13 14 15 16 17 17 17 16 13 11 10 9 9 10 11 12 13 14 14 14 13 12 12 11 12 13 14 16 17 18 18 16 15 14 14 14 14 15 16 17 18 19 19 18 17 17 16 15 14 13 13 12 12 12 12 11
16 16 16 16 16 15 15 14 13 13 12 12 13 13 14 16 17 18 18 19 17 15 12 9 8 7 7 8 10 12 13 13 13 12 11 11 11 12 14 16 17 18 19 19 17 16 14 13 13 13 13 14 14 15 16 16 17 17 17 16 16 15 15 14 14 13 13 12 11
17 17 16 16 16 15 14 14 13 13 13 13 14 14 15 16 17 17 18 18 17 15 12 9 7 6 6 7 9 11 12 12 12 11 10 10 11 13 15 16 18 18 19 19 17 15 14 13 12 12 12 12 12 12 12 12 13 13 13 13 13 13 13 12 12 12 11 11 10
Height
5785 5785 5785 5786 5786 5786 5787 5787 5787 5787 5787 5788 5788 5788 5788 5788 5788 5788 5788 5788 5788 5788 5788 5788 5788 5787 5787 5787 5787 5787 5787 5787 5786 5786 5786 5786 5786 5786 5785 5785 5785 5785 5784 5784 5784 5783 5783 5782 5782 5782 5781 5781 5781 5780 5780 5779 5779 5779 5778 5778 5777 5777 5776 5776 5776 5775 5775 5774 5774
5782 5782 5782 5783 5783 5783 5783 5784 5784 5784 5784 5784 5784 5784 5784 5784 5784 5784 5784 5784 5784 5784 5784 5784 5784 5784 5784 5784 5784 5784 5784 5783 5783 5783 5783 5783 5783 5783 5783 5782 5782 5782 5781 5781 5781 5780 5780 5779 5779 5779 5778 5778 5778 5777 5777 5776 5776 5776 5775 5775 5774 5774 5774 5773 5773 5772 5772 5771 5770
5779 5779 5779 5779 5779 5779 5780 5780 5780 5780 5781 5781 5781 5781 5781 5781 5781 5781 5781 5781 5781 5781 5781 5781 5781 5781 5781 5781 5781 5780 5780 5780 5780 5780 5780 5780 5780 5780 5779 5779 5779 5778 5778 5778 5778 5777 5777 5776 5776 5776 5775 5775 5775 5774 5774 5773 5773 5773 5772 5772 5771 5771 5770 5770 5770 5769 5769 5768 5767
5775 5776 5776 5776 5776 5776 5776 5777 5777 5777 5777 5777 5777 5777 5777 5777 5778 5778 5777 5777 5778 5778 5778 5778 5778 5777 5777 5778 5777 5777 5777 5777 5777 5777 5777 5777 5777 5776 5776 5776 5776 5775 5775 5775 5774 5774 5774 5774 5773 5773 5773 5772 5772 5771 5771 5770 5770 5769 5769 5769 5768 5768 5767 5767 5767 5766 5766 5765 5764
5772 5772 5772 5772 5773 5773 5773 5773 5774 5774 5774 5774 5774 5774 5774 5774 5774 5774 5774 5774 5774 5774 5775 5774 5774 5774 5774 5774 5774 5774 5774 5774 5774 5774 5774 5774 5773 5773 5773 5773 5772 5772 5772 5771 5771 5771 5770 5770 5770 5770 5769 5769 5769 5768 5768 5767 5767 5766 5766 5765 5765 5764 5764 5764 5764 5763 5763 5762 5761
5769 5769 5769 5769 5769 5769 5769 5770 5770 5770 5770 5770 5771 5771 5770 5770 5770 5770 5770 5770 5771 5771 5771 5771 5771 5770 5770 5770 5770 5770 5770 5770 5770 5770 5770 5770 5770 5770 5770 5769 5769 5769 5768 5768 5768 5768 5767 5767 5767 5766 5766 5766 5765 5765 5764 5764 5764 5763 5763 5762 5762 5762 5761 5761 5760 5760 5760 5759 5758
5765 5765 5766 5766 5766 5766 5766 5766 5767 5767 5767 5767 5767 5767 5767 5767 5767 5767 5767 5767 5767 5767 5767 5767 5767 5767 5767 5767 5767 5767 5767 5767 5767 5767 5767 5767 5767 5767 5766 5766 5765 5765 5765 5764 5764 5764 5764 5764 5763 5763 5763 5762 5762 5762 5761 5761 5760 5760 5759 5759 5759 5759 5758 5758 5758 5757 5756 5756 5755
5762 5762 5762 5762 5763 5763 5763 5763 5763 5763 5764 5764 5764 5764 5764 5764 5764 5764 5764 5764 5764 5764 5764 5764 5764 5764 5764 5764 5764 5764 5763 5763 5763 5763 5763 5764 5763 5763 5763 5762 5762 5761 5761 5761 5761 5761 5760 5760 5760 5759 5759 5759 5759 5758 5758 5758 5757 5757 5756 5756 5755 5754 5754 5754 5754 5754 5753 5752 5751
5758 5759 5759 5759 5759 5759 5759 5759 5760 5760 5760 5760 5760 5760 5760 5760 5760 5760 5760 5760 5760 5760 5760 5760 5760 5760 5760 5760 5760 5760 5760 5760 5759 5759 5760 5760 5760 5759 5759 5759 5758 5758 5758 5757 5757 5757 5757 5756 5756 5756 5755 5755 5755 5754 5754 5754 5754 5754 5753 5753 5752 5752 5751 5751 5750 5750 5749 5749 5748
5755 5755 5755 5755 5755 5756 5756 5756 5756 5756 5757 5757 5757 5757 5757 5757 5757 5757 5757 5757 5757 5756 5756 5756 5756 5756 5756 5756 5756 5756 5756 5756 5756 5756 5756 5756 5756 5756 5755 5755 5754 5754 5754 5754 5754 5753 5753 5753 5752 5752 5752 5751 5751 5750 5750 5750 5751 5750 5749 5749 5748 5748 5747 5747 5747 5746 5745 5745 5744
5751 5751 5752 5752 5752 5752 5752 5752 5753 5753 5753 5753 5753 5753 5753 5753 5753 5753 5753 5753 5753 5753 5753 5752 5753 5753 5753 5753 5753 5753 5752 5752 5752 5752 5752 5752 5752 5752 5752 5751 5751 5750 5750 5750 5750 5749 5749 5749 5749 5748 5748 5747 5747 5747 5746 5746 5746 5746 5746 5744 5744 5744 5744 5744 5743 5743 5742 5741 5741
5748 5748 5748 5748 5748 5748 5749 5749 5749 5749 5749 5749 5749 5749 5749 5749 5749 5749 5749 5749 5749 5749 5749 5749 5749 5749 5749 5749 5749 5749 5749 5749 5748 5748 5748 5748 5748 5748 5748 5747 5747 5746 5746 5746 5746 5746 5745 5745 5744 5744 5744 5744 5743 5743 5743 5742 5742 5742 5741 5741 5741 5740 5740 5739 5739 5739 5738 5738 5737
5744 5744 5744 5744 5744 5745 5745 5745 5745 5745 5746 5746 5746 5746 5746 5746 5745 5745 5745 5745 5745 5745 5745 5745 5745 5745 5745 5744 5744 5744 5744 5744 5744 5744 5744 5744 5744 5744 5744 5743 5743 5742 5742 5742 5742 5742 5741 5741 5740 5740 5740 5739 5739 5739 5739 5738 5738 5738 5737 5737 5737 5736 5736 5735 5735 5735 5734 5734 5733
5740 5740 5740 5740 5741 5741 5741 5741 5741 5742 5742 5742 5742 5742 5742 5742 5741 5741 5741 5741 5741 5741 5741 5741 5741 5741 5741 5741 5740 5740 5740 5740 5740 5740 5740 5740 5740 5739 5739 5739 5738 5738 5738 5738 5738 5738 5737 5737 5736 5736 5736 5735 5735 5735 5734 5734 5734 5734 5733 5733 5733 5732 5732 5731 5731 5731 5730 5730 5729
5737 5737 5737 5737 5737 5737 5737 5737 5737 5738 5738 5738 5738 5738 5738 5738 5737 5737 5737 5737 5737 5737 5737 5737 5737 5737 5737 5737 5737 5736 5736 5736 5737 5737 5737 5736 5736 5735 5735 5734 5734 5734 5734 5734 5734 5734 5733 5733 5732 5732 5732 5731 5731 5731 5730 5730 5730 5729 5729 5729 5729 5728 5728 5727 5727 5727 5726 5726 5725
5733 5733 5733 5733 5733 5733 5733 5733 5734 5734 5734 5734 5734 5734 5734 5733 5733 5733 5733 5733 5733 5733 5733 5733 5733 5733 5733 5733 5733 5733 5732 5733 5733 5733 5733 5732 5732 5731 5731 5730 5730 5730 5730 5730 5730 5729 5729 5729 5728 5728 5728 5727 5727 5727 5726 5726 5725 5725 5725 5725 5724 5724 5724 5724 5723 5723 5722 5722 5722
5729 5729 5729 5729 5729 5729 5729 5729 5730 5730 5730 5730 5729 5729 5729 5729 5729 5729 5729 5729 5729 5729 5729 5729 5729 5729 5729 5729 5729 5729 5729 5729 5729 5729 5729 5728 5728 5727 5727 5726 5726 5726 5726 5726 5726 5725 5725 5724 5724 5724 5724 5723 5723 5722 5722 5722 5721 5721 5721 5721 5720 5720 5720 5719 5719 5719 5718 5718 5718
5726 5726 5726 5726 5725 5725 5726 5726 5726 5726 5726 5726 5725 5725 5725 5725 5725 5725 5725 5725 5725 5725 5725 5725 5725 5725 5725 5725 5725 5725 5725 5725 5725 5725 5725 5724 5724 5723 5723 5723 5722 5722 5722 5722 5722 5721 5721 5720 5720 5719 5719 5719 5719 5718 5718 5718 5717 5717 5717 5717 5716 5716 5716 5715 5715 5715 5714 5714 5714
5722 5722 5722 5722 5722 5722 5722 5722 5722 5722 5722 5722 5722 5721 5721 5721 5721 5721 5721 5721 5721 5721 5721 5721 5721 5721 5722 5721 5721 5721 5721 5721 5721 5721 5721 5720 5720 5719 5719 5719 5718 5718 5718 5718 5718 5717 5717 5717 5716 5716 5715 5715 5714 5714 5714 5714 5713 5713 5713 5713 5713 5712 5712 5712 5711 5711 5710 5710 5710
5719 5719 5719 5719 5718 5718 5718 5718 5718 5718 5718 5718 5718 5717 5717 5717 5717 5717 5717 5717 5717 5717 5717 5717 5717 5718 5718 5718 5717 5717 5717 5717 5717 5717 5717 5716 5716 5716 5715 5715 5714 5714 5714 5714 5714 5714 5713 5713 5712 5712 5711 5711 5710 5710 5710 5709 5709 5709 5709 5709 5709 5708 5708 5708 5707 5707 5706 5706 5706
5715 5715 5715 5715 5715 5714 5714 5714 5714 5714 5714 5714 5714 5714 5714 5714 5714 5714 5714 5713 5713 5713 5713 5713 5713 5714 5714 5714 5714 5713 5713 5713 5714 5714 5713 5713 5712 5712 5712 5711 5711 5710 5710 5710 5710 5710 5709 5709 5709 5708 5708 5707 5707 5706 5706 5706 5705 5705 5705 5705 5704 5704 5704 5704 5703 5703 5703 5702 5702
5712 5711 5711 5711 5711 5711 5711 5710 5710 5710 5710 5710 5710 5710 5710 5710 5710 5710 5709 5709 5709 5709 5709 5709 5709 5709 5709 5709 5709 5709 5709 5709 5709 5709 5709 5709 5709 5708 5708 5708 5707 5707 5706 5706 5706 5706 5706 5705 5705 5704 5704 5704 5703 5703 5702 5702 5701 5701 5701 5701 5701 5700 5700 5700 5699 5699 5699 5699 5698
5708 5708 5708 5707 5707 5707 5707 5707 5707 5706 5706 5706 5706 5706 5706 5706 5706 5706 5706 5706 5705 5705 5705 5705 5705 5705 5705 5705 5706 5706 5706 5706 5706 5706 5705 5705 5705 5704 5704 5704 5704 5703 5703 5703 5702 5702 5702 5702 5701 5701 5700 5700 5699 5699 5699 5698 5698 5698 5697 5697 5697 5697 5696 5696 5696 5695 5695 5695 5694
5704 5704 5704 5704 5703 5703 5703 5703 5703 5703 5703 5703 5703 5702 5702 5702 5702 5702 5702 5702 5701 5701 5701 5701 5701 5701 5701 5701 5702 5702 5702 5702 5702 5702 5702 5702 5701 5701 5701 5700 5700 5700 5699 5699 5699 5699 5698 5698 5698 5697 5697 5696 5696 5695 5695 5695 5694 5694 5694 5694 5694 5693 5693 5692 5692 5692 5691 5691 5691
5700 5700 5699 5699 5699 5699 5699 5699 5699 5699 5699 5699 5699 5699 5698 5698 5698 5698 5698 5698 5698 5697 5697 5697 5697 5697 5697 5697 5698 5698 5698 5698 5698 5698 5698 5698 5698 5698 5697 5697 5697 5696 5696 5695 5695 5695 5695 5694 5694 5694 5693 5693 5692 5692 5692 5691 5691 5691 5691 5690 5690 5690 5689 5689 5689 5688 5688 5688 5688
5696 5696 5696 5696 5696 5695 5695 5695 5695 5695 5695 5695 5695 5695 5694 5694 5694 5694 5694 5694 5694 5694 5694 5694 5693 5693 5694 5694 5694 5694 5694 5694 5694 5694 5694 5694 5694 5694 5694 5694 5693 5693 5692 5692 5692 5692 5691 5691 5690 5690 5690 5689 5689 5689 5688 5688 5688 5688 5687 5687 5687 5687 5686 5686 5685 5685 5685 5685 5685
5692 5692 5692 5692 5692 5692 5692 5691 5691 5691 5691 5691 5691 5691 5691 5691 5690 5690 5690 5690 5690 5690 5690 5690 5689 5689 5690 5690 5690 5690 5690 5690 5691 5691 5691 5691 5691 5691 5690 5690 5690 5689 5689 5689 5688 5688 5688 5688 5687 5687 5686 5686 5685 5685 5685 5685 5684 5684 5684 5684 5684 5683 5683 5683 5682 5682 5682 5682 5682
5689 5689 5689 5689 5689 5688 5688 5688 5688 5687 5687 5687 5687 5687 5687 5687 5687 5686 5686 5686 5686 5686 5686 5686 5686 5686 5686 5686 5686 5686 5686 5687 5687 5687 5687 5687 5687 5687 5687 5687 5686 5686 5685 5685 5685 5685 5684 5684 5684 5684 5683 5683 5682 5682 5682 5681 5681 5681 5681 5680 5680 5680 5680 5679 5679 5679 5679 5679 5679
5685 5685 5685 5685 5685 5685 5684 5684 5684 5684 5683 5683 5683 5683 5683 5683 5683 5683 5683 5682 5682 5682 5682 5682 5682 5682 5682 5682 5682 5683 5683 5683 5683 5683 5683 5684 5684 5684 5683 5683 5683 5683 5682 5682 5682 5681 5681 5681 5681 5680 5680 5679 5679 5679 5679 5678 5678 5678 5678 5677 5677 5677 5677 5676 5676 5676 5676 5676 5676
5682 5682 5682 5682 5681 5681 5681 5681 5680 5680 5680 5679 5680 5680 5679 5679 5679 5679 5679 5679 5679 5679 5679 5679 5679 5679 5679 5679 5679 5679 5679 5679 5679 5679 5680 5680 5680 5680 5680 5679 5679 5679 5679 5679 5679 5678 5678 5678 5677 5677 5676 5676 5676 5675 5675 5675 5674 5674 5674 5674 5674 5674 5674 5674 5673 5673 5673 5673 5673
5679 5679 5678 5678 5678 5678 5677 5677 5677 5676 5676 5676 5676 5676 5676 5676 5676 5675 5675 5675 5675 5675 5675 5675 5675 5675 5675 5675 5675 5675 5675 5675 5676 5676 5676 5676 5676 5676 5676 5676 5676 5676 5675 5675 5675 5675 5674 5674 5674 5674 5673 5673 5672 5672 5672 5672 5671 5671 5671 5671 5671 5671 5671 5670 5670 5670 5670 5670 5670
5675 5675 5675 5674 5674 5674 5674 5673 5673 5673 5672 5672 5672 5672 5672 5672 5672 5672 5672 5672 5672 5672 5672 5672 5672 5672 5672 5672 5672 5672 5672 5672 5672 5672 5673 5673 5673 5673 5673 5673 5672 5672 5672 5672 5672 5672 5671 5671 5671 5670 5670 5669 5669 5669 5669 5669 5668 5668 5668 5668 5668 5668 5668 5667 5667 5667 5668 5668 5668
5671 5671 5671 5671 5671 5670 5670 5670 5669 5669 5669 5669 5669 5669 5669 5669 5669 5668 5668 5668 5668 5668 5668 5668 5668 5668 5668 5668 5668 5668 5669 5669 5669 5669 5669 5669 5669 5669 5669 5669 5669 5669 5669 5669 5669 5668 5668 5668 5667 5667 5666 5666 5666 5665 5665 5665 5665 5665 5665 5665 5665 5665 5665 5665 5665 5665 5665 5665 5665
5668 5668 5667 5667 5667 5667 5666 5666 5666 5665 5665 5665 5665 5665 5665 5665 5665 5664 5664 5664 5665 5665 5665 5665 5665 5665 5665 5665 5665 5665 5665 5665 5665 5665 5665 5665 5665 5665 5665 5665 5665 5665 5665 5665 5665 5665 5665 5664 5664 5664 5663 5663 5663 5662 5662 5662 5662 5662 5662 5662 5662 5662 5662 5662 5662 5662 5662 5662 5663
5664 5664 5664 5664 5663 5663 5663 5663 5662 5662 5662 5662 5662 5662 5662 5661 5661 5661 5661 5661 5661 5661 5661 5661 5661 5661 5661 5661 5661 5662 5662 5662 5662 5662 5662 5662 5662 5662 5662 5662 5662 5662 5662 5662 5662 5662 5661 5661 5661 5660 5660 5660 5659 5659 5659 5659 5659 5659 5659 5659 5659 5659 5659 5659 5659 5660 5660 5660 5660
5661 5660 5660 5660 5659 5659 5659 5659 5659 5659 5658 5658 5658 5658 5658 5658 5658 5657 5657 5657 5658 5658 5658 5658 5658 5658 5658 5658 5658 5658 5659 5659 5659 5659 5659 5659 5659 5659 5659 5659 5659 5659 5659 5659 5659 5658 5658 5658 5658 5657 5657 5657 5657 5657 5657 5657 5657 5657 5657 5657 5657 5657 5657 5657 5657 5658 5658 5658 5658
5657 5657 5656 5656 5656 5656 5655 5655 5655 5655 5654 5654 5654 5654 5654 5654 5654 5654 5654 5654 5654 5654 5654 5654 5655 5655 5655 5655 5655 5655 5655 5655 5655 5655 5656 5656 5656 5656 5656 5656 5656 5655 5655 5655 5655 5655 5655 5655 5655 5654 5654 5654 5654 5654 5654 5654 5654 5654 5654 5655 5655 5655 5655 5655 5655 5655 5655 5656 5656
5653 5653 5653 5652 5652 5652 5652 5651 5651 5651 5651 5651 5651 5651 5651 5651 5650 5650 5650 5651 5651 5651 5651 5651 5651 5652 5652 5652 5652 5652 5652 5652 5652 5652 5652 5653 5653 5653 5653 5652 5652 5652 5652 5652 5652 5652 5652 5652 5652 5652 5652 5651 5651 5651 5652 5652 5652 5652 5652 5652 5652 5652 5653 5653 5653 5653 5653 5654 5654
5649 5649 5649 5648 5648 5648 5648 5648 5648 5647 5647 5647 5647 5647 5647 5647 5647 5647 5647 5647 5648 5648 5648 5648 5648 5649 5649 5649 5649 5649 5649 5649 5649 5649 5649 5649 5649 5649 5649 5649 5649 5649 5649 5649 5649 5649 5649 5649 5649 5649 5649 5649 5649 5649 5649 5649 5649 5649 5650 5650 5650 5650 5650 5650 5650 5651 5651 5651 5651
5645 5645 5645 5644 5644 5644 5644 5644 5644 5644 5644 5644 5644 5644 5644 5644 5644 5644 5644 5644 5644 5644 5644 5645 5645 5645 5645 5646 5646 5646 5646 5646 5646 5646 5646 5646 5646 5646 5646 5646 5646 5646 5646 5646 5646 5646 5646 5646 5646 5646 5646 5646 5646 5647 5647 5647 5647 5647 5647 5648 5648 5648 5648 5648 5648 5649 5649 5649 5649
5641 5641 5641 5641 5641 5641 5641 5640 5640 5640 5640 5640 5640 5640 5640 5640 5640 5640 5640 5641 5641 5641 5641 5642 5642 5642 5643 5643 5643 5643 5643 5643 5643 5643 5643 5643 5643 5643 5643 5643 5643 5643 5643 5643 5643 5643 5643 5643 5644 5644 5644 5644 5644 5644 5644 5644 5645 5645 5645 5645 5645 5646 5646 5646 5646 5646 5647 5647 5647